CZ-4C R/B

Satellite information

Favourite Embed

Satellite Type and Status

ROCKET BODYIN ORBIT

Key statistics

Satellite CZ-4C R/B at a glance.

Uptime

789

Days in orbit

Revolutions

≈ 14.2

Per day

Orbit

SSO

Sun Synchronous Orbit

Inclination

99.0

Latest

Satellite identification and parameters

Extended collection of information and parameters for CZ-4C R/B.

Object identification

Identified? True

Debris? False

Object name: CZ-4C R/B

International designator: 2023-030C

Object number (NORAD): 55838

Object ID (CCSDS): 55838

Country: PEOPLES REPUBLIC OF CHINA (PRC)

Current information (Y/N): Y

RCS size: LARGE

Orbital parameters

Period: 101.282 minutes

Inclination: 98.9517 deg

SMA: 7197.497 km

Apoapsis: 881.4 km

Periapsis: 757.325 km

RAAN: 159.5183 deg

Eccentricy: 0.0086193

Argument of periapsis: 306.9758 deg

Mean anomaly: 52.355 deg

Mean motion: 14.21773715 rev/day

Mean motion (dot): 0.00000131 rev/day2

B* drag term: 0.000077891 1/REarth

Two-line elements (TLE)

Creation date: May 6, 2025, 3:54 a.m.

Reference frame: TEME

Reference center: EARTH

Epoch: May 5, 2025, 8:19 p.m. UTC

TLE line 0: 0 CZ-4C R/B

TLE line 1: 1 55838U 23030C 25125.84680205 .00000131 00000-0 77891-4 0 9996

TLE line 2: 2 55838 98.9517 159.5183 0086193 306.9758 52.3550 14.21773715111930

Live tracking on map

Real-time ground track for satellite CZ-4C R/B.

In-orbit conjunctions

A list of the most updated potential collisions computed for object CZ-4C R/B.

Target Orbit TCA Probability of collision Miss distance Type
THOR ABLESTAR DEB LEO 2025-04-30 12:59:43 0.0005402403 317.0 (m) DEBRIS
CZ-6A DEB SSO 2025-01-01 13:06:30 0.0007183953 147.0 (m) DEBRIS

Associated space launch

Described as satellites for cartography purposes, details TBD.

CZ-4C R/B was lifted into orbit during the mission ‘Long March 4C | Tianhui-6 A/B’, on board a Long March 4C space rocket.

The launch took place on March 9, 2023, 10:41 p.m. from Launch Complex 9.

For more information about the launch, click the button.

Launch to space Long March 4C | Tianhui-6 A/B
Long March 4C | Tianhui-6 A/B

Agency: N/A

Status: Launch Successful

Launch date: March 9, 2023, 10:41 p.m. UTC

Rocket: Long March 4C

Launch pad: Launch Complex 9

Location: Taiyuan Satellite Launch Center, People's Republic of China

...

Latest news about this satellite

There are no fresh news available about this satellite. Check back as we update our databases every day.


Newsletter sign-up

Weekly statistics, charts and insights to help you stay on top of the space industry.